{"data":{"norad_id":62112,"intl_designator":"2024-221B","name":"GUANGCHUAN 02","alt_names":[],"object_type":"PAYLOAD","status":"ACTIVE","operator":null,"country":"PRC","launch_date":"2024-11-27","launch_site_code":"JSC","launch_vehicle":null,"mission":null,"orbit_class":"UNKNOWN","rcs_meters":null,"size_class":null,"mass_kg":null,"dimensions":null,"purposes":[],"wikipedia_slug":null,"has_3d_model":false,"image_url":null,"decayed_at":null,"tle_current":{"epoch":"2026-05-25T03:30:14.247936Z","epoch_age_seconds":62783,"freshness":"FRESH","line1":"1 62112U 24221B   26145.14599824  .00003218  00000+0  18888-3 0  9992","line2":"2 62112  49.9424 274.2528 0006862 253.2296 106.7902 15.14429526 82685","mean_motion":15.14429526,"eccentricity":0.0006862,"inclination_deg":49.9424,"raan_deg":274.2528,"arg_perigee_deg":253.2296,"mean_anomaly_deg":106.7902,"bstar":0.00018888,"rev_number":8268,"period_min":95.085309370811,"perigee_km":517.9756520242,"apogee_km":527.44637583852,"semimajor_km":6900.8480139314,"source":"CELESTRAK","updated_at":"2026-05-25T13:38:02.765431Z"}}}